Temperature
17 17 17 17 17 17 17 17 17 17 17 17 18 18 18 18 18 18 18 18 18 18 18 18 18 18 18 18 18 17 17 17 17 17 16 16 16 16 16 16 16 16 16
17 17 17 17 17 17 17 17 17 17 17 17 17 17 17 18 17 17 17 18 18 18 18 18 18 18 18 18 18 17 17 17 17 17 17 16 16 16 16 16 16 16 16
17 17 17 17 17 17 17 17 17 17 17 17 17 17 17 17 17 17 17 17 18 18 18 18 18 18 18 17 17 17 17 17 17 17 17 17 16 16 16 16 16 16 16
17 17 17 17 17 17 17 17 17 17 17 17 17 17 17 17 17 17 17 17 17 17 18 18 18 18 18 17 17 17 17 17 17 17 17 16 16 16 16 16 16 16 16
17 17 17 17 17 17 17 17 17 17 17 17 17 17 17 17 17 17 17 17 17 17 17 18 18 18 18 18 17 17 17 17 17 17 16 16 16 16 16 16 16 16 16
17 17 17 17 17 17 17 17 17 17 17 17 17 17 17 17 17 17 17 17 17 17 17 17 17 17 17 17 17 17 17 17 17 17 17 16 16 16 16 16 16 16 16
17 17 17 17 17 17 17 17 17 17 17 17 17 18 18 17 17 17 17 17 17 17 17 17 17 17 17 17 17 17 17 17 17 17 17 16 16 16 16 16 16 16 16
17 17 17 17 17 17 17 17 17 17 17 17 17 18 18 18 17 17 17 17 17 17 17 17 17 17 17 17 17 17 17 17 17 17 16 16 16 16 16 16 16 16 16
17 17 17 17 17 17 17 17 17 17 17 17 17 17 18 19 18 17 17 17 17 17 17 16 16 16 16 16 16 17 17 17 16 17 17 16 16 16 16 16 16 16 15
17 17 17 17 17 17 17 17 17 17 17 17 17 17 17 17 18 18 18 17 17 16 16 16 16 16 16 16 16 16 16 16 16 16 16 16 16 16 16 16 16 16 16
17 17 17 17 16 17 17 16 16 17 17 17 17 17 17 17 17 18 18 17 17 17 16 16 16 16 16 16 16 16 16 16 16 16 16 16 16 16 16 16 16 16 15
17 17 17 16 16 16 16 16 16 16 16 17 16 17 17 17 17 17 17 17 17 17 16 16 16 16 16 16 16 16 16 16 16 16 16 16 16 16 16 16 16 16 15
17 17 16 16 16 16 16 16 16 16 16 16 16 16 16 16 17 17 17 17 17 17 16 16 16 16 15 15 15 16 16 16 16 16 16 16 16 16 16 15 15 15 15
16 16 16 16 16 16 16 16 16 16 16 16 16 16 16 16 16 16 16 16 17 17 17 16 16 15 15 15 15 15 15 15 15 15 15 15 15 16 16 15 15 15 15
16 16 16 16 16 16 16 16 16 16 16 16 16 16 16 16 16 16 16 16 16 16 17 16 16 15 15 15 15 15 15 15 15 15 15 15 15 15 15 15 15 15 15
16 16 16 16 16 16 16 16 16 16 16 16 16 16 16 16 16 16 16 16 16 16 16 16 15 15 15 15 15 14 14 15 15 15 15 15 15 15 15 15 15 15 15
16 16 16 16 16 16 16 16 15 15 15 15 15 15 15 15 15 15 15 15 15 15 15 15 15 15 14 14 14 14 14 14 14 15 15 15 15 15 15 15 15 15 15
16 16 16 15 15 15 15 15 15 15 15 15 15 15 15 15 15 15 15 15 15 15 15 15 15 14 14 14 14 14 14 14 14 14 15 15 15 15 15 15 15 15 15
16 15 15 15 15 15 15 15 15 15 15 15 15 15 15 15 14 14 14 15 15 15 14 14 14 14 14 14 14 14 14 14 14 14 14 14 14 14 14 14 14 14 14
15 15 15 15 15 15 15 15 14 14 14 14 15 14 14 14 14 14 14 14 14 14 14 14 14 14 14 14 13 13 14 13 13 14 14 14 14 14 14 14 14 14 14
15 15 15 15 15 15 15 14 14 14 14 14 14 14 14 14 14 14 14 14 14 14 14 14 14 14 14 13 14 13 13 13 13 13 13 13 13 14 14 14 14 14 14
15 15 14 14 14 14 14 14 14 14 14 14 14 14 14 14 14 14 14 14 14 14 14 14 14 14 13 13 13 13 13 13 13 13 13 13 13 13 13 13 14 14 13
15 15 14 14 14 14 14 14 14 14 14 13 13 13 13 14 14 14 14 14 14 14 14 13 13 13 13 13 13 13 13 13 13 13 13 13 13 13 13 13 13 13 13
15 15 14 14 14 14 14 14 14 13 13 13 13 13 13 13 13 13 13 13 13 13 13 13 13 13 13 13 13 13 13 12 12 13 13 13 13 13 13 13 13 13 13
14 14 14 14 14 13 14 13 13 13 13 13 13 13 13 13 13 13 13 13 13 13 13 13 13 13 13 13 13 12 12 12 13 13 13 12 13 13 13 13 13 13 13
14 14 14 14 13 13 13 13 13 13 13 13 13 13 13 13 13 13 13 13 13 13 13 13 13 13 13 13 13 12 12 12 13 13 13 12 12 12 13 13 12 12 12
Wind_Speed
1 1 1 0 0 1 1 1 1 1 1 1 1 1 1 0 0 1 2 6 5 5 6 7 8 9 9 9 9 9 9 9 9 10 10 10 10 9 10 9 9 10 11
1 1 1 0 0 0 1 1 0 0 1 1 1 1 1 1 1 1 1 4 6 5 6 7 7 8 9 9 10 10 10 10 10 10 10 10 10 10 10 9 8 9 10
1 1 1 1 0 0 1 1 0 0 0 0 1 1 1 1 0 0 1 1 4 6 7 6 7 8 8 9 10 10 10 11 11 11 10 10 10 10 9 10 9 9 9
2 2 2 1 1 1 1 1 1 0 0 0 0 1 1 0 0 1 1 1 1 2 5 6 6 7 8 8 9 10 11 11 11 11 11 11 11 10 10 10 9 10 10
2 3 2 1 2 1 1 1 1 0 0 0 0 0 0 0 0 0 1 0 0 1 2 6 7 5 5 6 8 9 10 11 11 11 11 11 11 11 11 11 10 10 10
3 3 2 2 2 1 1 0 0 1 1 1 1 1 0 0 0 1 0 1 1 0 1 1 4 6 6 5 5 7 8 8 10 11 11 11 11 11 11 11 11 11 11
2 3 2 1 2 1 1 1 2 2 2 1 2 1 1 1 1 1 0 0 1 0 0 1 1 1 4 7 5 4 6 7 8 9 10 11 11 12 12 12 12 12 12
3 3 2 2 1 1 2 2 2 2 1 1 2 2 2 3 2 1 1 1 0 0 1 1 1 1 1 2 5 4 3 4 6 7 8 9 10 11 12 12 12 12 12
3 2 2 3 2 3 2 2 3 3 2 2 2 2 2 1 1 2 2 1 1 1 1 1 1 1 1 1 3 5 4 3 4 5 6 8 8 8 10 11 11 11 11
3 3 3 3 3 3 2 4 3 3 3 3 2 2 3 3 2 1 2 2 1 1 2 1 0 1 1 1 2 2 3 2 2 2 3 5 7 8 8 9 10 11 11
3 3 3 3 4 3 3 3 3 4 3 3 3 2 2 3 4 3 2 1 1 1 1 2 1 0 1 1 1 3 3 2 1 2 2 3 4 6 8 9 9 9 10
2 2 3 3 4 3 3 4 4 4 4 3 3 3 3 3 3 3 3 3 2 1 1 1 1 1 1 1 2 5 3 2 2 2 2 2 3 4 6 8 8 8 9
3 2 2 3 3 3 4 4 4 4 4 4 4 4 3 3 3 3 4 3 3 3 1 2 2 1 1 1 2 4 3 4 3 2 2 2 2 3 4 6 8 8 9
3 2 3 3 3 3 3 3 4 4 4 4 4 4 4 3 3 3 4 4 4 3 3 2 1 1 1 1 2 3 3 5 3 2 1 1 2 2 4 5 7 8 9
3 3 3 3 3 3 3 4 3 4 4 5 4 5 4 3 4 4 4 4 4 5 4 2 2 2 1 1 2 2 2 4 4 3 2 2 2 2 3 5 7 8 8
3 3 3 3 3 3 3 3 4 3 4 4 4 4 4 4 3 4 4 5 5 5 5 3 2 2 1 2 3 2 2 4 6 5 4 3 3 3 3 4 6 7 8
3 3 4 4 3 3 3 3 4 3 4 5 5 5 5 4 4 3 4 5 4 4 5 4 3 2 3 3 2 3 4 4 4 7 5 5 4 3 4 4 5 6 6
4 4 4 4 4 4 3 3 4 4 5 5 5 5 5 4 4 4 4 5 4 4 5 5 4 3 3 4 3 4 3 4 4 6 8 7 6 5 4 5 5 6 6
5 5 4 4 4 4 4 4 4 5 5 5 5 5 6 5 5 5 5 5 5 5 5 5 5 3 3 3 3 4 4 3 5 5 8 9 8 7 6 6 6 6 7
5 5 5 5 5 5 5 5 5 5 5 5 5 5 5 6 6 6 5 6 6 5 5 5 5 4 4 4 4 4 4 4 4 4 4 5 7 9 9 8 7 7 8
5 5 5 5 5 5 4 4 5 5 5 5 5 5 5 5 5 5 6 6 6 6 6 6 6 5 4 4 5 5 5 4 4 4 4 4 4 5 6 9 9 8 8
4 5 5 5 6 5 1 3 5 6 6 6 6 5 5 6 6 7 8 8 8 8 8 7 7 6 6 6 5 5 5 5 4 4 4 5 4 4 4 5 6 8 8
4 5 5 6 6 5 3 4 6 6 6 6 6 6 6 5 5 6 7 9 10 10 9 9 8 8 6 6 5 6 5 6 6 4 4 5 4 4 4 4 8 9 9
5 5 5 6 7 6 5 6 6 7 7 7 7 7 7 6 5 5 6 7 8 9 10 10 9 8 7 6 6 7 7 6 6 4 4 5 4 4 4 4 9 10 9
5 5 5 6 7 6 5 6 6 6 6 8 7 7 7 7 4 4 6 7 7 7 7 7 7 7 5 5 5 5 5 6 5 4 4 5 4 4 4 4 6 11 11
5 5 5 5 6 6 4 5 6 6 6 6 6 6 6 6 4 5 7 7 7 7 6 6 7 8 8 8 9 8 7 7 6 5 4 4 4 4 4 3 3 5 7
Wind_Direction
136 121 121 94 29 67 103 99 87 47 15 127 71 64 26 31 302 283 133 144 161 187 201 203 199 198 202 203 201 200 198 196 200 201 200 199 199 203 205 204 207 207 205
163 187 170 176 283 348 19 351 50 28 51 68 61 30 358 353 29 307 222 156 161 177 192 203 202 202 204 205 205 202 200 200 203 206 205 205 205 207 205 202 203 203 204
183 228 235 230 277 243 203 213 175 64 68 86 82 32 0 1 23 270 241 208 175 172 182 196 205 206 209 210 212 208 207 206 205 207 209 210 208 207 206 206 207 207 206
225 244 251 250 247 249 225 195 209 172 76 347 9 12 23 24 316 239 208 198 210 186 169 177 198 210 214 215 215 213 210 208 207 209 211 212 211 208 206 208 209 209 207
232 246 259 283 258 253 249 255 121 272 9 326 290 152 53 61 18 56 72 112 152 204 174 164 177 190 203 211 215 212 209 208 208 207 210 211 211 211 211 212 211 211 210
240 260 235 238 261 252 247 298 15 251 254 260 291 4 316 175 156 98 151 112 100 145 155 159 174 168 177 191 202 208 204 204 208 208 208 209 210 213 214 215 214 213 213
240 254 268 219 249 238 242 225 220 218 231 242 250 221 183 181 163 181 192 152 123 118 102 139 188 183 173 176 183 190 200 205 206 208 210 211 214 216 216 216 216 216 215
242 223 239 246 233 220 210 215 231 253 243 233 262 262 223 177 180 191 181 168 7 224 172 134 125 168 226 155 134 153 183 200 205 202 206 211 213 215 215 216 217 216 215
223 248 234 250 251 243 217 222 225 236 249 232 237 269 278 273 182 170 178 167 197 275 221 136 153 140 189 156 149 150 157 192 216 215 212 212 208 210 215 212 211 212 211
219 223 229 233 243 245 227 231 218 239 248 243 220 246 283 314 285 229 188 177 197 257 291 277 206 197 183 153 130 121 147 163 189 212 208 208 202 202 203 205 212 215 211
215 223 225 231 233 238 235 242 234 243 241 251 254 247 247 244 253 268 272 255 225 237 252 264 265 238 127 125 128 103 112 138 168 185 199 200 199 208 211 211 214 213 211
213 217 226 238 241 242 231 231 232 230 242 252 259 258 255 260 256 264 272 268 271 254 229 244 252 214 172 126 98 89 102 133 134 145 166 186 205 214 219 214 210 212 214
225 222 239 242 245 240 238 236 231 241 236 236 245 253 260 269 278 268 270 276 279 273 231 216 215 221 198 166 125 116 120 131 128 142 164 185 213 222 224 219 215 216 216
246 226 225 236 248 250 245 236 240 237 232 233 241 253 259 260 265 263 261 263 268 265 237 234 220 210 195 189 117 159 153 144 144 158 189 199 213 231 231 227 220 219 218
245 227 231 235 245 252 256 250 247 246 240 240 239 234 246 249 247 254 249 242 253 267 267 231 237 219 201 182 134 199 203 157 172 186 203 219 225 233 237 231 224 220 220
255 250 244 241 239 244 251 258 254 249 245 244 249 253 254 254 251 244 246 249 250 257 270 273 253 234 221 234 169 211 221 182 191 191 205 217 224 230 231 229 224 220 219
237 239 243 242 241 244 249 253 263 257 250 247 244 236 239 248 246 243 241 245 243 244 250 262 253 212 208 240 222 227 227 228 206 185 199 213 221 228 233 231 224 219 221
231 227 234 237 241 243 247 251 257 257 256 251 246 242 239 231 232 242 241 241 240 238 239 246 250 228 214 220 227 244 244 241 245 191 195 209 220 228 236 238 230 221 218
234 234 234 237 243 246 248 250 251 254 254 255 254 246 240 235 234 237 239 241 238 231 228 233 240 235 233 226 233 239 242 247 254 214 197 205 214 220 229 236 233 223 215
235 235 237 240 242 247 249 252 253 255 260 262 262 258 247 234 232 234 237 240 239 237 231 233 237 232 231 226 232 243 243 236 251 251 229 219 212 213 220 220 220 217 212
239 235 239 242 247 248 252 262 264 258 263 266 265 258 250 238 244 241 246 244 237 235 232 233 234 232 232 227 231 239 248 248 241 245 249 238 221 225 219 211 209 204 204
237 231 235 243 249 254 234 256 266 265 266 266 264 260 252 235 232 231 240 248 252 243 240 239 240 237 235 236 233 241 246 249 254 233 245 253 247 243 235 223 182 187 200
230 229 235 242 250 251 225 235 247 260 259 261 261 260 263 254 239 250 238 233 242 245 246 244 247 249 244 240 237 239 243 256 263 265 248 252 244 244 240 211 167 184 198
231 236 241 246 250 244 218 230 241 250 255 258 257 256 258 263 261 259 259 250 242 234 231 233 242 247 248 248 236 236 242 246 251 242 244 252 250 250 249 224 169 179 198
241 245 243 248 253 250 220 227 238 253 252 255 257 254 253 257 256 257 257 257 254 245 230 223 234 245 256 243 243 244 241 244 251 244 230 249 254 256 248 232 187 184 198
239 246 243 247 253 260 234 227 235 249 255 259 255 251 244 244 246 243 252 251 250 249 243 227 220 227 231 223 215 226 237 240 247 250 226 235 246 246 250 235 222 204 211
Height
1538 1538 1538 1538 1539 1539 1538 1538 1538 1537 1536 1537 1538 1539 1539 1539 1540 1541 1541 1541 1541 1542 1542 1543 1545 1546 1547 1548 1549 1550 1551 1552 1553 1554 1555 1556 1557 1557 1558 1559 1560 1561 1562
1538 1538 1538 1538 1538 1538 1538 1538 1538 1537 1536 1537 1538 1538 1538 1539 1539 1539 1540 1540 1540 1541 1542 1542 1543 1545 1546 1547 1548 1548 1549 1550 1551 1552 1553 1554 1555 1556 1557 1558 1559 1560 1561
1537 1538 1538 1538 1538 1538 1537 1537 1537 1537 1537 1537 1538 1538 1538 1538 1538 1539 1540 1540 1540 1540 1541 1541 1542 1543 1544 1545 1546 1547 1547 1548 1549 1550 1551 1552 1553 1554 1555 1556 1557 1558 1559
1537 1537 1538 1538 1537 1537 1537 1537 1537 1538 1538 1538 1538 1538 1538 1538 1538 1539 1539 1539 1540 1540 1540 1540 1541 1541 1542 1543 1544 1545 1545 1546 1547 1548 1548 1549 1551 1552 1553 1554 1555 1556 1557
1537 1537 1537 1537 1537 1537 1537 1537 1537 1537 1538 1538 1538 1538 1538 1538 1538 1538 1538 1539 1539 1539 1540 1539 1539 1540 1540 1541 1542 1542 1543 1544 1545 1545 1546 1547 1548 1549 1550 1551 1552 1553 1554
1536 1536 1537 1536 1536 1537 1537 1536 1536 1536 1537 1537 1538 1538 1538 1538 1538 1538 1538 1538 1538 1538 1539 1538 1538 1538 1539 1539 1539 1540 1541 1542 1542 1543 1544 1545 1546 1547 1547 1548 1549 1550 1552
1535 1535 1537 1536 1536 1536 1536 1536 1536 1536 1537 1537 1537 1537 1537 1537 1537 1537 1537 1537 1537 1537 1537 1537 1537 1537 1537 1537 1537 1538 1539 1539 1540 1541 1541 1542 1543 1544 1545 1546 1547 1548 1549
1534 1535 1534 1535 1535 1535 1535 1535 1535 1536 1536 1536 1536 1536 1536 1537 1536 1536 1536 1535 1536 1536 1536 1536 1535 1535 1536 1536 1536 1536 1537 1537 1538 1538 1539 1539 1540 1541 1542 1543 1544 1545 1546
1533 1533 1533 1534 1534 1535 1534 1534 1534 1534 1535 1535 1535 1536 1535 1534 1535 1535 1535 1534 1534 1534 1534 1534 1534 1534 1534 1534 1534 1534 1534 1535 1535 1536 1536 1537 1538 1539 1540 1540 1541 1542 1544
1531 1531 1532 1532 1532 1533 1533 1533 1533 1533 1533 1534 1534 1534 1534 1534 1534 1534 1534 1533 1533 1533 1533 1533 1533 1532 1532 1532 1532 1532 1532 1533 1533 1534 1534 1535 1535 1536 1537 1538 1539 1540 1541
1529 1530 1530 1530 1531 1531 1531 1531 1531 1531 1532 1532 1533 1533 1533 1533 1533 1533 1533 1533 1532 1532 1532 1532 1532 1532 1531 1531 1530 1530 1531 1531 1531 1531 1532 1533 1533 1535 1535 1536 1537 1538 1539
1528 1528 1528 1528 1529 1530 1529 1529 1529 1530 1530 1530 1530 1531 1531 1531 1531 1531 1531 1531 1531 1531 1530 1530 1530 1530 1530 1530 1529 1529 1529 1529 1529 1530 1530 1531 1531 1532 1533 1534 1535 1535 1536
1526 1526 1526 1526 1527 1527 1527 1527 1527 1528 1528 1528 1528 1529 1529 1529 1529 1530 1529 1529 1529 1529 1529 1529 1529 1528 1528 1528 1527 1527 1527 1527 1527 1528 1528 1529 1529 1530 1531 1531 1532 1533 1533
1524 1524 1524 1524 1524 1525 1525 1525 1526 1526 1526 1526 1526 1526 1526 1527 1527 1527 1528 1528 1527 1527 1527 1528 1527 1527 1526 1526 1526 1525 1525 1525 1525 1526 1526 1526 1527 1527 1528 1529 1529 1530 1531
1522 1522 1522 1522 1522 1522 1522 1523 1523 1523 1523 1523 1524 1524 1524 1524 1524 1524 1525 1525 1526 1525 1525 1525 1525 1525 1525 1524 1524 1524 1524 1523 1524 1524 1524 1524 1524 1525 1525 1526 1527 1527 1528
1519 1519 1520 1520 1520 1520 1520 1520 1521 1520 1520 1520 1520 1520 1520 1521 1521 1522 1522 1522 1523 1523 1522 1523 1523 1523 1523 1523 1522 1522 1522 1521 1522 1522 1522 1522 1522 1522 1523 1523 1524 1524 1525
1517 1517 1517 1517 1517 1517 1517 1517 1518 1517 1517 1517 1517 1517 1517 1517 1518 1518 1519 1519 1520 1520 1520 1520 1521 1520 1519 1520 1520 1519 1520 1519 1520 1519 1519 1519 1519 1519 1520 1520 1520 1521 1522
1514 1514 1514 1515 1515 1515 1515 1514 1514 1514 1514 1514 1514 1514 1514 1514 1514 1515 1515 1516 1516 1516 1517 1517 1517 1517 1517 1517 1517 1516 1517 1518 1517 1517 1516 1516 1516 1516 1517 1517 1517 1518 1518
1511 1512 1512 1512 1512 1512 1512 1511 1511 1511 1511 1510 1510 1510 1510 1510 1510 1511 1511 1512 1513 1513 1513 1514 1514 1514 1515 1515 1514 1514 1515 1514 1514 1514 1514 1513 1513 1513 1513 1514 1514 1514 1515
1508 1509 1509 1509 1509 1509 1509 1508 1508 1508 1507 1507 1507 1506 1506 1506 1507 1507 1508 1508 1509 1510 1510 1510 1511 1511 1511 1511 1512 1512 1512 1511 1511 1512 1511 1511 1510 1510 1510 1510 1510 1511 1512
1506 1506 1506 1506 1506 1506 1506 1506 1505 1505 1504 1504 1503 1503 1503 1503 1503 1504 1504 1505 1505 1506 1507 1507 1507 1507 1508 1508 1508 1509 1509 1509 1508 1508 1508 1508 1507 1507 1507 1506 1506 1507 1508
1502 1503 1503 1503 1503 1503 1503 1502 1502 1501 1501 1500 1500 1500 1500 1499 1499 1499 1500 1500 1501 1502 1503 1503 1503 1503 1503 1504 1505 1505 1506 1506 1506 1506 1505 1505 1505 1504 1504 1504 1503 1504 1504
1499 1499 1499 1499 1499 1499 1499 1499 1498 1498 1498 1497 1497 1496 1497 1497 1496 1496 1496 1496 1497 1497 1498 1498 1499 1499 1500 1500 1501 1502 1502 1502 1502 1502 1502 1501 1501 1501 1501 1500 1500 1500 1501
1495 1495 1495 1495 1495 1496 1495 1495 1495 1494 1494 1494 1493 1493 1493 1492 1492 1492 1492 1492 1492 1492 1493 1493 1494 1495 1496 1497 1497 1498 1497 1498 1498 1499 1499 1499 1499 1498 1498 1498 1497 1497 1497
1491 1491 1492 1492 1491 1492 1492 1492 1491 1491 1491 1490 1490 1490 1489 1489 1488 1488 1488 1488 1488 1488 1489 1489 1489 1490 1491 1492 1493 1494 1495 1495 1495 1495 1495 1496 1496 1495 1495 1495 1495 1494 1494
1488 1488 1488 1488 1488 1488 1488 1488 1488 1488 1487 1486 1486 1486 1485 1485 1484 1484 1484 1484 1483 1484 1485 1485 1485 1486 1487 1488 1489 1489 1490 1491 1492 1492 1492 1492 1492 1493 1493 1492 1492 1492 1492